Great Salt Lake Weather Center

Moon Phase Calendar



Great Salt Lake Water Level
Online Cameras

 


      

Current Conditions in Little Mountain
6/18/2024 9:59:15 AM

55°F
Feels Like 52
Clear
Humidity
41%
Pressure
30.03"
Wind
8.3 mph (E)
Dew Point
32°F
UV Index
3/10 (Moderate)
Visibility
6 mi

Hourly Forecast

Date & Time Tue, Jun 18
9:00 AM
Tue, Jun 18
10:00 AM
Tue, Jun 18
11:00 AM
Tue, Jun 18
12:00 PM
Tue, Jun 18
1:00 PM
Tue, Jun 18
2:00 PM
Tue, Jun 18
3:00 PM
Tue, Jun 18
4:00 PM
Tue, Jun 18
5:00 PM
Tue, Jun 18
6:00 PM
Tue, Jun 18
7:00 PM
Tue, Jun 18
8:00 PM
Tue, Jun 18
9:00 PM
Tue, Jun 18
10:00 PM
Tue, Jun 18
11:00 PM
Wed, Jun 19
12:00 AM
Wed, Jun 19
1:00 AM
Wed, Jun 19
2:00 AM
Wed, Jun 19
3:00 AM
Wed, Jun 19
4:00 AM
Wed, Jun 19
5:00 AM
Wed, Jun 19
6:00 AM
Wed, Jun 19
7:00 AM
Wed, Jun 19
8:00 AM
Wed, Jun 19
9:00 AM
Wed, Jun 19
10:00 AM
Wed, Jun 19
11:00 AM
Wed, Jun 19
12:00 PM
Wed, Jun 19
1:00 PM
Wed, Jun 19
2:00 PM
Wed, Jun 19
3:00 PM
Wed, Jun 19
4:00 PM
Wed, Jun 19
5:00 PM
Wed, Jun 19
6:00 PM
Wed, Jun 19
7:00 PM
Wed, Jun 19
8:00 PM
Wed, Jun 19
9:00 PM
Wed, Jun 19
10:00 PM
Wed, Jun 19
11:00 PM
Thu, Jun 20
12:00 AM
Thu, Jun 20
1:00 AM
Thu, Jun 20
2:00 AM
Thu, Jun 20
3:00 AM
Thu, Jun 20
4:00 AM
Thu, Jun 20
5:00 AM
Thu, Jun 20
6:00 AM
Thu, Jun 20
7:00 AM
Thu, Jun 20
8:00 AM
Condition
Clear

Clear

Clear

Clear

Clear

Clear

Clear

Clear

Clear

Clear

Clear

Clear

Clear

Clear

Clear

Clouds

Clouds

Clouds

Clouds

Clouds

Clouds

Clouds

Clouds

Clouds

Clouds

Clouds

Clouds

Clouds

Clouds

Clouds

Clouds

Clouds

Clouds

Clouds

Clear

Clear

Clouds

Clouds

Clouds

Clouds

Clouds

Clouds

Clouds

Clouds

Clouds

Clouds

Clouds

Clouds
Temperature 54°F55°F54°F54°F54°F55°F56°F57°F58°F59°F60°F61°F63°F63°F63°F62°F61°F59°F59°F58°F57°F57°F56°F56°F57°F59°F60°F62°F63°F63°F62°F64°F65°F66°F67°F68°F69°F69°F68°F67°F66°F66°F66°F66°F65°F65°F65°F65°F
Feels Like 51°F52°F51°F51°F51°F51°F52°F53°F54°F55°F57°F58°F60°F60°F60°F60°F58°F57°F56°F56°F55°F54°F54°F54°F55°F56°F57°F59°F60°F60°F59°F61°F64°F65°F65°F66°F68°F68°F67°F65°F65°F65°F64°F64°F64°F64°F63°F63°F
Cloudiness 6%6%6%6%2%1%0%0%0%0%0%1%0%0%1%14%67%46%66%74%80%83%100%100%100%100%100%100%100%100%98%90%83%70%7%8%12%35%46%57%100%100%100%100%100%100%100%99%
Visibility 6 mi6 mi6 mi6 mi6 mi6 mi6 mi6 mi6 mi6 mi6 mi6 mi6 mi6 mi6 mi6 mi6 mi6 mi6 mi6 mi6 mi6 mi6 mi6 mi6 mi6 mi6 mi6 mi6 mi6 mi6 mi6 mi6 mi6 mi6 mi6 mi6 mi6 mi6 mi6 mi6 mi6 mi6 mi6 mi6 mi6 mi6 mi6 mi
Precipitation 0%0%0%0%0%0%0%0%0%0%0%0%0%0%0%0%0%0%0%0%0%0%0%0%0%0%0%0%0%0%0%0%0%0%0%0%0%0%0%0%0%0%0%0%0%0%0%0%
Humidity 42%41%40%38%36%33%29%28%29%30%29%26%24%24%26%30%36%41%42%41%42%42%41%40%36%33%30%28%30%35%40%39%40%43%44%47%49%53%55%56%53%51%51%50%47%46%45%46%
Dew Point 32°F32°F31°F29°F28°F27°F24°F24°F26°F28°F27°F26°F26°F26°F28°F30°F33°F35°F35°F35°F35°F34°F33°F32°F30°F29°F27°F27°F31°F35°F38°F39°F41°F43°F45°F47°F49°F51°F51°F51°F49°F47°F47°F46°F45°F44°F43°F44°F
Pressure 30.03"30.03"30.03"30.03"30"30"29.97"29.97"29.94"29.94"29.91"29.91"29.91"29.91"29.91"29.94"29.94"29.94"29.94"29.94"29.94"29.97"29.97"29.97"29.97"29.97"29.97"29.94"29.94"29.91"29.88"29.85"29.83"29.83"29.83"29.83"29.8"29.8"29.8"29.83"29.83"29.83"29.83"29.83"29.83"29.83"29.85"29.85"
Wind Speed 10.4 mph8.3 mph6 mph3.5 mph0.8 mph2.1 mph3.5 mph4.8 mph7.4 mph8.9 mph7.8 mph7.9 mph7.5 mph6.5 mph6.5 mph7.4 mph9.9 mph11.2 mph12 mph12.5 mph13.2 mph12.8 mph13 mph11.6 mph9.6 mph7.9 mph5.8 mph5.8 mph7.1 mph8.1 mph8.8 mph9.2 mph9.7 mph11 mph9.6 mph7.3 mph7.5 mph9.3 mph9.9 mph8 mph8.3 mph9.1 mph8.6 mph8.2 mph7 mph7.2 mph7.1 mph6.6 mph
Wind
Direction
102°
ESE
101°
E
111°
ESE
129°
SE
113°
ESE
329°
NNW
336°
NNW
341°
NNW
347°
NNW
348°
NNW
348°
NNW
32°
NNE
60°
ENE
70°
ENE
68°
ENE
68°
ENE
66°
ENE
61°
ENE
55°
NE
52°
NE
52°
NE
47°
NE
48°
NE
44°
NE
44°
NE
40°
NE
32°
NNE
359°
N
326°
NW
306°
NW
297°
WNW
312°
NW
319°
NW
319°
NW
315°
NW
332°
NNW
22°
NNE
48°
NE
58°
ENE
54°
NE
45°
NE
42°
NE
44°
NE
49°
NE
57°
ENE
66°
ENE
77°
ENE
76°
ENE

Daily Forecast

Date High Low Precip. Humidity
Today
Jun 18

Clear
63 °F
53 °F
0%
36%
Wednesday
Jun 19

Clouds
69 °F
56 °F
0%
30%
Thursday
Jun 20

Clear
75 °F
65 °F
0%
42%
Friday
Jun 21

Clouds
75 °F
67 °F
0%
63%
Saturday
Jun 22

Clear
79 °F
67 °F
0%
60%
Sunday
Jun 23

Clear
82 °F
69 °F
0%
53%
Monday
Jun 24

Clear
79 °F
69 °F
0%
48%
Tuesday
Jun 25

Clear
80 °F
68 °F
0%
50%
Wednesday
Jun 26

Clear
79 °F
69 °F
0%
51%
Thursday
Jun 27

Clear
82 °F
70 °F
0%
48%
Friday
Jun 28

Clouds
76 °F
71 °F
0%
56%
Saturday
Jun 29

Clear
73 °F
66 °F
0%
33%
Sunday
Jun 30

Clear
78 °F
66 °F
0%
36%
Monday
Jul 1

Clear
81 °F
69 °F
0%
43%
Tuesday
Jul 2

Clear
85 °F
72 °F
0%
43%
Wednesday
Jul 3

Clear
85 °F
72 °F
0%
44%

Temperature 8-14 Day Outlook



Precipitation 8-14 Day Outlook






About Us
Contact Us
Site Map
Search Site
Advertise With Us
   
GreatSalt.USLakes.info
THE GREAT SALT LAKE WEBSITE

Copyright 2024, Lakes Online
Privacy    |    Legal